College Park, MD

7:54 AM EST on November 20, 2017 (GMT -0500)
College Park

Weather History for KCGS - February, 2013

Change the Weather History Date:

Sunday, February 10, 2013

  Actual Average Record
Temperature  
Mean Temperature 34 °F -  
Max Temperature 48 °F 39 °F 67 °F (1949)
Min Temperature 21 °F 21 °F -4 °F (1979)
Degree Days  
Heating Degree Days 30    
Moisture  
Dew Point 19 °F    
Average Humidity 56    
Maximum Humidity 97    
Minimum Humidity 25    
Precipitation  
Precipitation 0.00 in - - ()
Sea Level Pressure  
Sea Level Pressure 30.40 in    
Wind  
Wind Speed 2 mph (SSE)    
Max Wind Speed 9 mph    
Max Gust Speed -    
Visibility 10 miles    
Events      
Averages and records for this station are not official NWS values.
T = Trace of Precipitation, MM = Missing Value Source: NWS Daily Summary

Daily Weather History Graph

Daily Weather History Graph

Search for Another Location

Airport or City:

Trip Planner

Search our weather history database for the weather conditions in past years. The results will help you decide how hot, cold, wet, or windy it might be!

Date:

Astronomy

Feb. 10, 2013 Rise Set
Actual Time 7:04 AM EST 5:39 PM EST
Civil Twilight 6:37 AM EST 6:07 PM EST
Nautical Twilight 6:05 AM EST 6:38 PM EST
Astronomical Twilight 5:34 AM EST 7:09 PM EST
Moon 6:53 AM EST (2/10) 6:27 PM EST (2/10)
Length of Visible Light 11h 30m
Length of Day
10h 35m
New Moon, 0% of the Moon is Illuminated
Feb 10
New Moon
Feb 17
First Quarter
Feb 25
Full
Mar 4
Last Quarter
Mar 11
New

Hourly Weather History & Observations

Time (EST) Temp. Windchill Dew Point Humidity Pressure Visibility Wind Dir Wind Speed Gust Speed Precip Events Conditions
12:15 AM 26.6 °F - 21.6 °F 81% 30.41 in 10.0 mi Calm Calm - N/A   Clear
12:35 AM 26.1 °F - 22.1 °F 85% 30.41 in 10.0 mi Calm Calm - N/A   Clear
12:55 AM 26.4 °F - 23.7 °F 90% 30.40 in 10.0 mi Calm Calm - N/A   Clear
1:15 AM 25.7 °F - 20.5 °F 81% 30.41 in 10.0 mi Calm Calm - N/A   Clear
1:35 AM 25.9 °F - 20.8 °F 81% 30.41 in 10.0 mi Calm Calm - N/A   Clear
1:55 AM 24.8 °F - 21.4 °F 87% 30.42 in 10.0 mi Calm Calm - N/A   Clear
3:35 AM 23.7 °F - 20.8 °F 89% 30.42 in 10.0 mi Calm Calm - N/A   Clear
4:55 AM 22.8 °F - 19.2 °F 86% 30.45 in 10.0 mi Calm Calm - N/A   Clear
5:15 AM 21.9 °F - 19.2 °F 89% 30.44 in 10.0 mi Calm Calm - N/A   Clear
5:35 AM 22.1 °F - 20.3 °F 93% 30.44 in 10.0 mi Calm Calm - N/A   Clear
5:55 AM 22.8 °F - 21.4 °F 94% 30.44 in 10.0 mi Calm Calm - N/A   Clear
6:15 AM 22.5 °F - 21.2 °F 95% 30.46 in 10.0 mi Calm Calm - N/A   Clear
6:35 AM 21.7 °F - 19.4 °F 91% 30.47 in 10.0 mi Calm Calm - N/A   Clear
6:55 AM 21.0 °F - 19.6 °F 94% 30.46 in 10.0 mi Calm Calm - N/A   Clear
7:15 AM 21.7 °F - 21.0 °F 97% 30.48 in 10.0 mi Calm Calm - N/A   Clear
7:35 AM 21.7 °F - 20.1 °F 93% 30.48 in 10.0 mi Calm Calm - N/A   Clear
7:55 AM 23.7 °F - 21.7 °F 92% 30.49 in 10.0 mi Calm Calm - N/A   Clear
8:15 AM 26.6 °F - 23.5 °F 88% 30.50 in 10.0 mi Calm Calm - N/A   Clear
8:35 AM 28.6 °F - 24.8 °F 86% 30.49 in 10.0 mi Calm Calm - N/A   Clear
8:55 AM 30.9 °F - 24.3 °F 76% 30.49 in 10.0 mi Calm Calm - N/A   Clear
9:15 AM 33.1 °F 30.0 °F 20.7 °F 60% 30.49 in 10.0 mi SE 3.5 mph - N/A   Clear
9:35 AM 35.1 °F 31.0 °F 21.4 °F 57% 30.49 in 10.0 mi ESE 4.6 mph - N/A   Clear
9:55 AM 36.1 °F - 19.9 °F 52% 30.49 in 10.0 mi Calm Calm - N/A   Clear
10:15 AM 36.5 °F 32.7 °F 19.0 °F 49% 30.49 in 10.0 mi SSE 4.6 mph - N/A   Clear
10:35 AM 38.1 °F 35.7 °F 20.5 °F 49% 30.49 in 10.0 mi South 3.5 mph - N/A   Clear
10:55 AM 38.3 °F 34.8 °F 17.6 °F 43% 30.49 in 10.0 mi ESE 4.6 mph - N/A   Clear
11:15 AM 39.4 °F 36.1 °F 16.5 °F 40% 30.49 in 10.0 mi South 4.6 mph - N/A   Clear
11:35 AM 39.7 °F - 16.7 °F 39% 30.48 in 10.0 mi Calm Calm - N/A   Clear
11:55 AM 40.8 °F 36.9 °F 16.0 °F 37% 30.45 in 10.0 mi SSE 5.8 mph - N/A   Clear
12:15 PM 40.3 °F 37.1 °F 16.2 °F 38% 30.45 in 10.0 mi SSE 4.6 mph - N/A   Clear
12:35 PM 41.9 °F 38.2 °F 16.0 °F 35% 30.44 in 10.0 mi SSE 5.8 mph - N/A   Clear
12:55 PM 43.0 °F 39.5 °F 17.2 °F 36% 30.44 in 10.0 mi SSW 5.8 mph - N/A   Clear
1:15 PM 44.6 °F 40.7 °F 16.3 °F 32% 30.42 in 10.0 mi South 6.9 mph - N/A   Clear
1:35 PM 45.0 °F 42.6 °F 16.5 °F 32% 30.41 in 10.0 mi South 4.6 mph - N/A   Clear
1:55 PM 45.1 °F 42.8 °F 15.8 °F 31% 30.40 in 10.0 mi SSW 4.6 mph - N/A   Clear
2:15 PM 46.9 °F - 16.7 °F 30% 30.38 in 10.0 mi SSE 4.6 mph - N/A   Clear
2:35 PM 46.4 °F 41.9 °F 15.8 °F 29% 30.37 in 10.0 mi SE 9.2 mph - N/A   Clear
2:55 PM 45.5 °F 43.2 °F 16.3 °F 31% 30.36 in 10.0 mi SSE 4.6 mph - N/A   Clear
3:20 PM 47.5 °F - 17.1 °F 30% 30.36 in 10.0 mi SE 6.9 mph - N/A   Clear
3:40 PM 48.2 °F - 14.5 °F 26% 30.35 in 10.0 mi South 9.2 mph - N/A   Clear
3:55 PM 48.4 °F - 13.6 °F 25% 30.35 in 10.0 mi South 4.6 mph - N/A   Clear
4:20 PM 46.6 °F - 14.2 °F 27% 30.34 in 10.0 mi SSE 8.1 mph - N/A   Clear
4:40 PM 45.9 °F 43.6 °F 15.3 °F 29% 30.35 in 10.0 mi SE 4.6 mph - N/A   Clear
5:00 PM 45.9 °F 43.6 °F 15.8 °F 30% 30.35 in 10.0 mi SSE 4.6 mph - N/A   Clear
5:20 PM 45.5 °F 41.8 °F 17.6 °F 33% 30.35 in 10.0 mi SE 6.9 mph - N/A   Clear
5:40 PM 43.0 °F 40.3 °F 19.6 °F 39% 30.35 in 10.0 mi East 4.6 mph - N/A   Clear
6:00 PM 42.1 °F 38.4 °F 19.4 °F 40% 30.35 in 10.0 mi ESE 5.8 mph - N/A   Clear
6:20 PM 41.2 °F 37.3 °F 18.1 °F 40% 30.35 in 10.0 mi ESE 5.8 mph - N/A   Clear
6:30 PM 41.0 °F 39.0 °F 17.6 °F 39% 30.35 in 10.0 mi ESE 3.5 mph - N/A   Clear
7:00 PM 40.5 °F 37.3 °F 17.4 °F 39% 30.34 in 10.0 mi East 4.6 mph - N/A   Clear
7:20 PM 40.5 °F 38.4 °F 18.0 °F 40% 30.35 in 10.0 mi SE 3.5 mph - N/A   Clear
7:40 PM 40.3 °F 37.1 °F 19.2 °F 43% 30.34 in 10.0 mi ESE 4.6 mph - N/A   Clear
8:00 PM 40.1 °F 38.0 °F 20.1 °F 45% 30.33 in 10.0 mi ESE 3.5 mph - N/A   Clear
8:20 PM 40.1 °F 36.9 °F 19.8 °F 44% 30.34 in 10.0 mi SE 4.6 mph - N/A   Clear
9:00 PM 40.1 °F 38.0 °F 19.4 °F 43% 30.33 in 10.0 mi SE 3.5 mph - N/A   Clear
9:20 PM 39.7 °F - 19.8 °F 45% 30.33 in 10.0 mi Calm Calm - N/A   Clear
9:40 PM 39.7 °F 36.5 °F 21.0 °F 47% 30.32 in 10.0 mi SSE 4.6 mph - N/A   Clear
10:00 PM 39.6 °F 37.4 °F 23.0 °F 52% 30.30 in 10.0 mi SSE 3.5 mph - N/A   Clear
10:15 PM 39.4 °F 37.2 °F 23.9 °F 54% 30.29 in 10.0 mi SSE 3.5 mph - N/A   Clear
10:35 PM 39.2 °F 37.0 °F 25.3 °F 58% 30.30 in 10.0 mi SSE 3.5 mph - N/A   Clear
11:20 PM 39.2 °F 35.9 °F 27.5 °F 63% 30.28 in 10.0 mi SE 4.6 mph - N/A   Scattered Clouds
11:40 PM 39.0 °F - 28.4 °F 66% 30.28 in 10.0 mi Calm Calm - N/A   Scattered Clouds